CW3467 Sant Marti de Canals ES current weather conditions

sailwx.info

Wind from 039

Air temperature 24.4° C
Dewpoint 10.3° C

Last reported at 2020-Aug-05 21:08 UTC.
Time now 2020-Aug-05 21:31 UTC

Location: N 42°14' E 000°59'.
View on Google Maps.

See reports from other nearby stations

  
Tides and Currents Weather Stations Pressure Air Temp Water Temp Dewpoint Dewpoint Depression Visibility Wind Speed Wind Dir Waves Ship Positions
date/time (UTC)wind fromknots sea level pressurealtimeterstation pressurevisibilityair tempwater tempwave heightnotes
2020-Aug-05 21:08 039 24.4
2020-Aug-05 21:03 039 24.4
2020-Aug-05 20:58 025 24.4
2020-Aug-05 20:53 343 25.0
2020-Aug-05 20:48 328 25.0
2020-Aug-05 20:43 343 25.0
2020-Aug-05 20:38 347 25.0
2020-Aug-05 20:33 360 25.0
2020-Aug-05 20:28 039 25.0
2020-Aug-05 20:23 025 25.6
2020-Aug-05 20:18 316 25.6
2020-Aug-05 20:13 109 25.6
2020-Aug-05 20:08 109 25.6
2020-Aug-05 20:03 109 25.6
2020-Aug-05 19:58 109 26.1
2020-Aug-05 19:53 109 26.1
2020-Aug-05 19:48 082 0 gusting 6 26.1
2020-Aug-05 19:43 101 1 gusting 5 26.1
2020-Aug-05 19:38 089 2 gusting 7 26.1
2020-Aug-05 19:33 084 4 gusting 6 26.7
2020-Aug-05 19:28 094 2 gusting 7 26.7
2020-Aug-05 19:23 124 5 gusting 8 26.7
2020-Aug-05 19:18 092 6 gusting 8 26.7
2020-Aug-05 19:13 098 5 gusting 8 26.7
2020-Aug-05 19:08 115 6 gusting 7 26.7
2020-Aug-05 19:03 091 5 gusting 10 27.2
2020-Aug-05 18:58 110 6 gusting 10 27.2
2020-Aug-05 18:53 103 5 gusting 8 27.2
2020-Aug-05 18:48 105 4 gusting 9 27.8
2020-Aug-05 18:43 104 6 gusting 9 27.8
2020-Aug-05 18:38 084 6 gusting 9 28.3
2020-Aug-05 18:33 115 6 gusting 8 28.3
2020-Aug-05 18:28 105 5 gusting 8 28.3
2020-Aug-05 18:23 103 5 gusting 10 28.3
2020-Aug-05 18:18 113 6 gusting 10 28.9
2020-Aug-05 18:13 099 6 gusting 9 28.9
2020-Aug-05 18:08 117 6 gusting 9 28.9
2020-Aug-05 18:03 117 6 gusting 9 28.9
2020-Aug-05 17:58 123 6 gusting 9 29.4
2020-Aug-05 17:53 129 6 gusting 9 29.4
2020-Aug-05 17:48 117 6 gusting 9 29.4
2020-Aug-05 17:43 113 4 gusting 9 30.0
2020-Aug-05 17:38 142 5 gusting 7 30.0
2020-Aug-05 17:33 158 2 gusting 9 30.0
2020-Aug-05 17:28 127 6 gusting 9 30.0
2020-Aug-05 17:23 148 4 gusting 6 30.6
2020-Aug-05 17:18 191 3 gusting 8 30.6
2020-Aug-05 17:13 120 4 gusting 8 30.6
2020-Aug-05 17:08 174 3 gusting 6 30.6
2020-Aug-05 17:03 098 1 gusting 5 30.6
2020-Aug-05 16:58 132 2 gusting 6 31.1
2020-Aug-05 16:53 155 4 gusting 7 31.1
2020-Aug-05 16:48 115 4 gusting 9 31.1
2020-Aug-05 16:43 169 4 gusting 9 31.1
2020-Aug-05 16:38 168 4 gusting 6 31.1
2020-Aug-05 16:33 184 3 gusting 7 31.7
2020-Aug-05 16:28 158 2 gusting 7 31.7
2020-Aug-05 16:23 143 4 gusting 8 31.7
2020-Aug-05 16:18 214 5 gusting 8 31.7
2020-Aug-05 16:13 200 3 gusting 6 31.7
2020-Aug-05 16:08 255 2 gusting 6 31.7
2020-Aug-05 16:03 233 0 gusting 9 31.7
2020-Aug-05 15:58 166 5 gusting 9 31.7
2020-Aug-05 15:53 162 2 gusting 6 31.7
2020-Aug-05 15:48 245 1 gusting 9 32.2
2020-Aug-05 15:43 213 5 gusting 9 31.7
2020-Aug-05 15:38 198 1 gusting 6 31.7
2020-Aug-05 15:33 182 3 gusting 7 31.7
2020-Aug-05 15:28 199 4 gusting 7 31.7
2020-Aug-05 15:23 129 3 gusting 8 31.7
2020-Aug-05 15:18 198 4 gusting 8 31.7
2020-Aug-05 15:13 221 4 gusting 6 32.2
2020-Aug-05 15:08 216 4 gusting 6 32.2
2020-Aug-05 15:03 235 0 gusting 6 32.2
2020-Aug-05 14:58 205 2 gusting 6 32.2
2020-Aug-05 14:53 211 2 gusting 6 32.2
2020-Aug-05 14:48 196 2 gusting 6 32.2
2020-Aug-05 14:43 210 2 gusting 6 32.2
2020-Aug-05 14:38 209 2 gusting 5 32.2
2020-Aug-05 14:33 184 1 gusting 6 32.2
2020-Aug-05 14:28 207 2 gusting 6 31.7
2020-Aug-05 14:23 206 1 gusting 5 32.2
2020-Aug-05 14:18 245 2 gusting 5 32.2
2020-Aug-05 14:13 215 1 gusting 5 32.2
2020-Aug-05 14:08 214 3 gusting 5 32.2
2020-Aug-05 14:03 204 1 gusting 5 31.7
2020-Aug-05 13:58 233 0 gusting 4 31.7
2020-Aug-05 13:53 204 0 gusting 5 31.7
2020-Aug-05 13:48 191 1 gusting 5 31.1
2020-Aug-05 13:43 196 0 gusting 6 31.1
2020-Aug-05 13:38 222 2 gusting 6 31.1
2020-Aug-05 13:33 183 1 gusting 5 31.7
2020-Aug-05 13:28 218 1 gusting 6 31.1
2020-Aug-05 13:23 228 2 gusting 6 31.1
2020-Aug-05 13:18 293 2 gusting 5 31.1
2020-Aug-05 13:13 195 1 gusting 6 31.1
2020-Aug-05 13:08 207 2 gusting 6 30.6
2020-Aug-05 13:03 120 3 gusting 5 30.6
2020-Aug-05 12:58 096 30.6
2020-Aug-05 12:53 252 0 gusting 6 30.6
2020-Aug-05 12:48 357 1 gusting 6 30.0
2020-Aug-05 12:43 221 1 gusting 4 29.4
2020-Aug-05 12:38 074 1 gusting 4 29.4
2020-Aug-05 12:33 225 28.9
2020-Aug-05 12:28 169 3 gusting 5 29.4
2020-Aug-05 12:23 178 1 gusting 4 29.4
2020-Aug-05 12:18 307 1 gusting 6 29.4
2020-Aug-05 12:13 271 1 gusting 6 29.4
2020-Aug-05 12:08 226 1 gusting 6 29.4
2020-Aug-05 12:03 199 29.4
2020-Aug-05 11:58 162 0 gusting 3 29.4
2020-Aug-05 11:53 236 1 gusting 6 28.9
2020-Aug-05 11:48 213 3 gusting 6 28.9
2020-Aug-05 11:43 203 1 gusting 4 28.3
2020-Aug-05 11:38 210 2 gusting 4 28.3
2020-Aug-05 11:33 117 1 gusting 5 28.3
2020-Aug-05 11:28 172 0 gusting 6 28.3
2020-Aug-05 11:23 183 2 gusting 5 28.3
2020-Aug-05 11:18 206 2 gusting 5 28.3
2020-Aug-05 11:13 220 1 gusting 6 27.8
2020-Aug-05 11:08 200 1 gusting 6 27.8
2020-Aug-05 11:03 212 3 gusting 5 27.8
2020-Aug-05 10:58 182 2 gusting 5 27.8
2020-Aug-05 10:53 166 1 gusting 5 27.8
2020-Aug-05 10:48 228 1 gusting 5 27.8
2020-Aug-05 10:43 209 0 gusting 4 27.2
2020-Aug-05 10:38 262 1 gusting 4 27.2
2020-Aug-05 10:33 217 1 gusting 3 27.2
2020-Aug-05 10:28 243 0 gusting 4 26.7
2020-Aug-05 10:23 122 26.1
2020-Aug-05 10:18 140 1 gusting 4 26.7
2020-Aug-05 10:13 255 26.7
2020-Aug-05 10:08 245 0 gusting 3 26.7
2020-Aug-05 10:03 248 26.1
2020-Aug-05 09:58 133 1 gusting 3 25.6
2020-Aug-05 09:53 108 26.1
2020-Aug-05 09:48 236 0 gusting 3 25.6
2020-Aug-05 09:43 229 0 gusting 4 26.1
2020-Aug-05 09:38 245 25.6
2020-Aug-05 09:33 236 0 gusting 2 25.6
2020-Aug-05 09:28 169 25.0
2020-Aug-05 09:23 258 24.4
2020-Aug-05 09:18 122 0 gusting 2 23.9
2020-Aug-05 09:13 252 23.9
2020-Aug-05 09:08 224 0 gusting 3 23.9
2020-Aug-05 09:03 083 0 gusting 2 23.3
2020-Aug-05 08:54 116 0 gusting 2 22.8
2020-Aug-05 08:48 165 1 gusting 3 22.8
2020-Aug-05 08:43 122 1 gusting 3 22.2
2020-Aug-05 08:38 146 1 gusting 3 22.2
2020-Aug-05 08:33 186 22.2
2020-Aug-05 08:28 131 1 gusting 3 22.2
2020-Aug-05 08:23 142 0 gusting 3 22.2
2020-Aug-05 08:18 229 0 gusting 3 21.7
2020-Aug-05 08:13 197 0 gusting 4 21.7
2020-Aug-05 08:08 174 1 gusting 4 21.7
2020-Aug-05 08:04 189 0 gusting 2 21.7
2020-Aug-05 07:58 178 0 gusting 2 21.1
2020-Aug-05 07:53 206 0 gusting 2 21.1
2020-Aug-05 07:48 209 0 gusting 3 20.0
2020-Aug-05 07:43 210 0 gusting 3 19.4
2020-Aug-05 07:38 140 2 gusting 4 18.9
2020-Aug-05 07:33 139 2 gusting 4 18.9
2020-Aug-05 07:28 139 1 gusting 4 18.9
2020-Aug-05 07:23 134 1 gusting 3 18.3
2020-Aug-05 07:18 121 0 gusting 3 18.3
2020-Aug-05 07:13 141 1 gusting 3 18.3
2020-Aug-05 07:08 133 0 gusting 3 18.3
2020-Aug-05 07:03 145 0 gusting 2 17.8
2020-Aug-05 06:58 136 1 gusting 2 17.8
2020-Aug-05 06:53 143 0 gusting 2 17.8
2020-Aug-05 06:48 135 0 gusting 1 18.9
2020-Aug-05 06:43 167 18.9
2020-Aug-05 06:38 101 18.3
2020-Aug-05 06:33 101 17.8
2020-Aug-05 06:28 118 17.8
2020-Aug-05 06:23 124 16.7
2020-Aug-05 06:18 124 16.7
2020-Aug-05 06:13 124 16.1
2020-Aug-05 06:08 096 16.1
2020-Aug-05 06:03 096 15.6
2020-Aug-05 05:58 096 15.0
2020-Aug-05 05:53 096 15.0
2020-Aug-05 05:48 096 15.6
2020-Aug-05 05:43 096 15.6
2020-Aug-05 05:38 096 15.6
2020-Aug-05 05:33 096 15.6
2020-Aug-05 05:28 096 15.6
2020-Aug-05 05:23 098 15.6
2020-Aug-05 05:18 096 1 gusting 2 15.6
2020-Aug-05 05:13 107 0 gusting 1 15.0
2020-Aug-05 05:08 095 15.0
2020-Aug-05 05:03 095 15.0
2020-Aug-05 04:58 068 15.6
2020-Aug-05 04:53 038 15.6
2020-Aug-05 04:48 038 15.6
2020-Aug-05 04:43 038 15.6
2020-Aug-05 04:38 038 15.6
2020-Aug-05 04:33 038 15.6
2020-Aug-05 04:23 122 15.6
2020-Aug-05 04:18 100 0 gusting 1 16.1
2020-Aug-05 04:13 100 16.1
2020-Aug-05 04:08 108 16.1
2020-Aug-05 04:03 139 0 gusting 1 16.1
2020-Aug-05 03:58 143 16.1
2020-Aug-05 03:53 124 16.1
2020-Aug-05 03:48 128 16.7
2020-Aug-05 03:43 101 16.7
2020-Aug-05 03:38 101 16.1
2020-Aug-05 03:33 110 16.1
2020-Aug-05 03:28 113 16.1
2020-Aug-05 03:23 113 16.7
2020-Aug-05 03:18 113 16.7
2020-Aug-05 03:13 113 16.7
2020-Aug-05 03:08 113 16.7
2020-Aug-05 03:03 077 0 gusting 3 16.7
2020-Aug-05 02:58 104 1 gusting 3 16.7
2020-Aug-05 02:53 030 16.1
2020-Aug-05 02:48 162 16.7
2020-Aug-05 02:43 162 16.7
2020-Aug-05 02:38 162 17.2
2020-Aug-05 02:33 103 17.2
2020-Aug-05 02:28 103 17.2
2020-Aug-05 02:23 103 17.2
2020-Aug-05 02:18 082 0 gusting 2 17.2
2020-Aug-05 02:13 094 1 gusting 1 17.2
2020-Aug-05 02:08 084 0 gusting 1 17.2
2020-Aug-05 02:03 124 17.2
2020-Aug-05 01:58 129 17.2
2020-Aug-05 01:53 129 17.2
2020-Aug-05 01:48 133 17.2
2020-Aug-05 01:43 096 17.8
2020-Aug-05 01:38 100 0 gusting 0 17.8
2020-Aug-05 01:33 125 17.8
2020-Aug-05 01:28 125 17.8
2020-Aug-05 01:23 125 17.8
2020-Aug-05 01:18 125 17.8
2020-Aug-05 01:03 125 18.3
2020-Aug-05 00:58 125 18.3
2020-Aug-05 00:53 125 18.3
2020-Aug-05 00:48 125 18.9
2020-Aug-05 00:43 125 18.9
2020-Aug-05 00:38 120 2 gusting 3 18.9
2020-Aug-05 00:33 090 1 gusting 2 18.9
2020-Aug-05 00:28 110 18.9
2020-Aug-05 00:23 111 18.9
2020-Aug-05 00:18 121 0 gusting 1 18.9
2020-Aug-05 00:13 115 0 gusting 1 18.9
2020-Aug-05 00:08 130 0 gusting 1 18.9
2020-Aug-05 00:03 158 19.4
2020-Aug-04 23:58 158 19.4
2020-Aug-04 23:53 077 19.4
2020-Aug-04 23:48 077 19.4
2020-Aug-04 23:43 079 19.4
2020-Aug-04 23:38 108 19.4
2020-Aug-04 23:33 153 19.4
2020-Aug-04 23:28 153 19.4
2020-Aug-04 23:23 153 19.4
2020-Aug-04 23:18 153 20.0
2020-Aug-04 23:13 153 20.0
2020-Aug-04 23:08 209 20.0
2020-Aug-04 23:03 110 20.0
2020-Aug-04 22:58 068 20.0
2020-Aug-04 22:53 015 20.6
2020-Aug-04 22:48 095 20.6
2020-Aug-04 22:43 095 20.6
2020-Aug-04 22:38 095 20.6
2020-Aug-04 22:33 095 21.1
2020-Aug-04 22:28 124 1 gusting 3 21.1
2020-Aug-04 22:23 127 1 gusting 3 21.1
2020-Aug-04 22:18 094 0 gusting 1 21.1
2020-Aug-04 22:13 143 21.1
2020-Aug-04 22:08 134 1 gusting 4 21.1
2020-Aug-04 22:03 110 0 gusting 2 21.1
2020-Aug-04 21:58 101 0 gusting 2 21.1
2020-Aug-04 21:53 075 21.7
2020-Aug-04 21:48 110 21.1
2020-Aug-04 21:43 110 21.7
2020-Aug-04 21:38 110 21.7
2020-Aug-04 21:33 110 21.7
2020-Aug-04 21:28 110 22.2
2020-Aug-04 21:23 110 22.2
2020-Aug-04 21:18 110 22.8
2020-Aug-04 21:13 110 22.8
2020-Aug-04 21:08 099 22.8
2020-Aug-04 21:03 113 22.8
2020-Aug-04 20:58 034 22.8
2020-Aug-04 20:53 034 23.3
2020-Aug-04 20:48 084 0 gusting 1 23.3
2020-Aug-04 20:43 069 0 gusting 2 23.3
2020-Aug-04 20:38 082 1 gusting 2 23.3
2020-Aug-04 20:33 074 0 gusting 2 23.3
2020-Aug-04 20:28 162 23.9
2020-Aug-04 20:23 162 23.9
2020-Aug-04 20:18 042 23.9
2020-Aug-04 20:13 042 23.9
2020-Aug-04 20:08 036 23.9
2020-Aug-04 20:03 094 24.4
2020-Aug-04 19:58 084 24.4
2020-Aug-04 19:53 098 1 gusting 5 24.4
2020-Aug-04 19:48 103 2 gusting 5 24.4
2020-Aug-04 19:43 122 2 gusting 5 24.4
2020-Aug-04 19:38 108 3 gusting 5 24.4
2020-Aug-04 19:33 107 3 gusting 5 24.4
2020-Aug-04 19:28 088 2 gusting 5 24.4
2020-Aug-04 19:23 143 3 gusting 6 24.4
2020-Aug-04 19:18 125 1 gusting 6 24.4
2020-Aug-04 19:13 127 3 gusting 5 24.4
2020-Aug-04 19:08 149 1 gusting 6 25.0
2020-Aug-04 19:03 145 2 gusting 6 25.0
2020-Aug-04 18:58 136 1 gusting 5 25.6
2020-Aug-04 18:53 105 2 gusting 5 25.6
2020-Aug-04 18:48 143 2 gusting 5 26.1
2020-Aug-04 18:43 124 1 gusting 5 26.7
2020-Aug-04 18:38 234 2 gusting 6 27.2
2020-Aug-04 18:33 168 4 gusting 6 27.2
2020-Aug-04 18:28 204 1 gusting 6 27.8
2020-Aug-04 18:23 238 3 gusting 6 27.8
2020-Aug-04 18:18 191 1 gusting 4 27.8
2020-Aug-04 18:13 210 1 gusting 6 27.8
2020-Aug-04 18:08 243 3 gusting 8 27.8
2020-Aug-04 18:03 203 4 gusting 8 27.8
2020-Aug-04 17:58 207 3 gusting 6 27.8
2020-Aug-04 17:53 166 3 gusting 6 28.3
2020-Aug-04 17:48 215 3 gusting 8 28.3
2020-Aug-04 17:43 236 2 gusting 8 28.3
2020-Aug-04 17:38 189 2 gusting 10 28.3
2020-Aug-04 17:33 221 4 gusting 10 28.3
2020-Aug-04 17:28 178 3 gusting 8 28.3
2020-Aug-04 17:23 167 3 gusting 9 28.3
2020-Aug-04 17:18 189 2 gusting 9 28.3
2020-Aug-04 17:13 203 2 gusting 9 28.3
2020-Aug-04 17:08 247 3 gusting 9 28.3
2020-Aug-04 17:03 195 2 gusting 8 28.3
2020-Aug-04 16:58 134 5 gusting 9 28.3
2020-Aug-04 16:53 204 5 gusting 9 28.3
2020-Aug-04 16:48 177 3 gusting 11 28.3
2020-Aug-04 16:43 201 4 gusting 11 28.3
2020-Aug-04 16:38 217 6 gusting 12 28.3
2020-Aug-04 16:33 207 6 gusting 12 28.3
2020-Aug-04 16:28 203 6 gusting 12 28.3
2020-Aug-04 16:23 256 6 gusting 12 28.3
2020-Aug-04 16:18 238 5 gusting 12 28.9
2020-Aug-04 16:13 191 5 gusting 12 28.9
2020-Aug-04 16:08 257 5 gusting 12 28.9
2020-Aug-04 16:03 201 6 gusting 12 28.9
2020-Aug-04 15:58 229 6 gusting 13 28.9
2020-Aug-04 15:53 216 6 gusting 13 28.9
2020-Aug-04 15:48 184 4 gusting 12 28.9
2020-Aug-04 15:43 149 4 gusting 10 28.9
2020-Aug-04 15:38 188 4 gusting 10 29.4
2020-Aug-04 15:33 231 4 gusting 8 29.4
2020-Aug-04 15:28 148 4 gusting 12 29.4
2020-Aug-04 15:23 179 3 gusting 11 28.9
2020-Aug-04 15:18 186 6 gusting 11 28.9
2020-Aug-04 15:13 099 5 gusting 9 28.9
2020-Aug-04 15:08 193 3 gusting 10 29.4
2020-Aug-04 15:03 167 5 gusting 10 29.4
2020-Aug-04 14:58 226 4 gusting 9 29.4
2020-Aug-04 14:53 215 3 gusting 9 29.4
2020-Aug-04 14:48 160 3 gusting 10 29.4
2020-Aug-04 14:43 153 6 gusting 13 29.4
2020-Aug-04 14:38 210 3 gusting 6 29.4
2020-Aug-04 14:33 156 3 gusting 7 29.4
2020-Aug-04 14:28 168 2 gusting 8 29.4
2020-Aug-04 14:23 173 4 gusting 7 29.4
2020-Aug-04 14:18 120 0 gusting 6 29.4
2020-Aug-04 14:13 139 2 gusting 7 29.4
2020-Aug-04 14:08 220 3 gusting 7 29.4
2020-Aug-04 14:03 197 0 gusting 5 29.4
2020-Aug-04 13:58 124 1 gusting 7 28.9
2020-Aug-04 13:53 129 5 gusting 7 28.3
2020-Aug-04 13:48 136 5 gusting 8 28.9
2020-Aug-04 13:43 165 5 gusting 8 28.9
2020-Aug-04 13:38 193 4 gusting 8 30.0
2020-Aug-04 13:33 307 2 gusting 6 28.9
2020-Aug-04 13:28 189 2 gusting 6 29.4
2020-Aug-04 13:23 326 2 gusting 7 29.4
2020-Aug-04 13:18 029 3 gusting 7 29.4
2020-Aug-04 13:13 214 1 gusting 6 29.4
2020-Aug-04 13:08 218 1 gusting 6 29.4
2020-Aug-04 13:03 224 2 gusting 6 28.9
2020-Aug-04 12:58 217 1 gusting 8 28.9
2020-Aug-04 12:53 193 4 gusting 8 28.3
2020-Aug-04 12:48 198 3 gusting 6 28.3
2020-Aug-04 12:43 150 3 gusting 7 28.3
2020-Aug-04 12:38 342 4 gusting 7 28.3
2020-Aug-04 12:33 169 2 gusting 6 28.3
2020-Aug-04 12:28 143 3 gusting 6 28.3
2020-Aug-04 12:23 171 3 gusting 6 28.3
2020-Aug-04 12:18 138 1 gusting 6 27.8
2020-Aug-04 12:13 208 2 gusting 8 27.8
2020-Aug-04 12:08 207 1 gusting 6 27.8
2020-Aug-04 12:03 194 2 gusting 6 28.3
2020-Aug-04 11:58 218 1 gusting 6 28.3
2020-Aug-04 11:53 207 1 gusting 5 28.3
2020-Aug-04 11:48 169 1 gusting 5 27.8
2020-Aug-04 11:43 206 2 gusting 6 27.8
2020-Aug-04 11:38 227 2 gusting 6 27.8
2020-Aug-04 11:33 189 1 gusting 5 27.8
2020-Aug-04 11:28 269 1 gusting 6 27.8
2020-Aug-04 11:23 264 2 gusting 6 27.2
2020-Aug-04 11:18 207 1 gusting 6 27.8
2020-Aug-04 11:13 169 4 gusting 7 27.2
2020-Aug-04 11:08 187 4 gusting 7 27.2
2020-Aug-04 11:03 207 4 gusting 7 27.2
2020-Aug-04 10:58 201 1 gusting 5 27.2
2020-Aug-04 10:53 291 2 gusting 5 27.2
2020-Aug-04 10:48 270 27.2
2020-Aug-04 10:43 250 2 gusting 6 27.2
2020-Aug-04 10:38 149 0 gusting 3 27.2
2020-Aug-04 10:33 218 0 gusting 3 27.2
2020-Aug-04 10:28 201 1 gusting 4 26.7
2020-Aug-04 10:23 183 1 gusting 4 26.1
2020-Aug-04 10:18 174 2 gusting 5 26.1
2020-Aug-04 10:13 188 0 gusting 4 26.1
2020-Aug-04 10:08 252 0 gusting 5 26.1
2020-Aug-04 10:03 221 1 gusting 5 26.1
2020-Aug-04 09:58 258 1 gusting 6 25.6
2020-Aug-04 09:53 200 2 gusting 6 26.1
2020-Aug-04 09:48 256 1 gusting 5 26.1
2020-Aug-04 09:43 310 0 gusting 5 25.6
2020-Aug-04 09:38 187 0 gusting 5 25.6
2020-Aug-04 09:33 177 1 gusting 3 25.6
2020-Aug-04 09:28 263 25.0
2020-Aug-04 09:23 312 24.4
2020-Aug-04 09:18 298 3 gusting 6 24.4
2020-Aug-04 09:14 309 1 gusting 5 24.4
2020-Aug-04 05:13 318 0 gusting 2 15.6
2020-Aug-04 05:08 333 15.6
2020-Aug-04 05:03 352 0 gusting 2 15.6
2020-Aug-04 04:58 083 15.6
2020-Aug-04 04:53 084 15.6
2020-Aug-04 04:48 066 15.6
2020-Aug-04 04:43 049 15.6
2020-Aug-04 04:38 025 15.6
2020-Aug-04 04:33 044 15.6
2020-Aug-04 04:28 042 15.6
2020-Aug-04 04:23 020 15.6
2020-Aug-04 04:18 027 15.6
2020-Aug-04 04:13 027 15.6
2020-Aug-04 04:08 037 16.1
2020-Aug-04 04:03 080 16.1
2020-Aug-04 03:58 080 16.1
2020-Aug-04 03:53 080 16.1
2020-Aug-04 03:48 080 16.1
2020-Aug-04 03:43 086 1 gusting 1 16.1
2020-Aug-04 03:38 086 0 gusting 1 16.1
2020-Aug-04 03:33 076 16.1
2020-Aug-04 03:28 089 16.1
2020-Aug-04 03:23 095 16.1
2020-Aug-04 03:18 095 16.1
2020-Aug-04 03:13 095 16.7
2020-Aug-04 03:08 095 16.7
2020-Aug-04 03:03 098 16.7
2020-Aug-04 02:58 098 16.7
2020-Aug-04 02:53 098 16.7
2020-Aug-04 02:48 098 16.7
2020-Aug-04 02:43 099 16.7
2020-Aug-04 02:38 095 17.2
2020-Aug-04 02:33 077 17.2
2020-Aug-04 02:28 016 17.2
2020-Aug-04 02:23 017 0 gusting 2 17.2
2020-Aug-04 02:18 090 17.8
2020-Aug-04 02:13 090 17.8
2020-Aug-04 02:08 090 17.8
2020-Aug-04 02:03 075 0 gusting 1 17.8
2020-Aug-04 01:58 101 0 gusting 0 17.8
2020-Aug-04 01:53 085 17.8
2020-Aug-04 01:48 085 18.3
2020-Aug-04 01:43 085 18.3
2020-Aug-04 01:38 085 18.3
2020-Aug-04 01:33 085 18.3
2020-Aug-04 01:28 085 18.3
2020-Aug-04 01:23 085 0 gusting 2 18.3
2020-Aug-04 01:18 088 1 gusting 2 18.3
2020-Aug-04 01:13 094 1 gusting 3 18.3
2020-Aug-04 01:08 093 1 gusting 3 18.3
2020-Aug-04 01:03 117 18.3
2020-Aug-04 00:58 110 18.9
2020-Aug-04 00:53 101 18.9
2020-Aug-04 00:48 102 18.9
2020-Aug-04 00:43 109 0 gusting 1 18.9
2020-Aug-04 00:38 113 19.4
2020-Aug-04 00:33 126 19.4
2020-Aug-04 00:28 021 19.4
2020-Aug-04 00:23 021 19.4
2020-Aug-04 00:18 049 19.4
2020-Aug-04 00:13 042 20.0
2020-Aug-04 00:08 015 20.0
2020-Aug-04 00:03 015 0 gusting 1 20.0
2020-Aug-03 23:58 015 0 gusting 1 20.0
2020-Aug-03 23:53 041 20.0
2020-Aug-03 23:48 026 0 gusting 2 20.0
2020-Aug-03 23:43 027 20.0
2020-Aug-03 23:38 093 20.6
2020-Aug-03 23:33 023 20.6
2020-Aug-03 23:28 026 0 gusting 3 20.6
2020-Aug-03 23:23 037 20.6
2020-Aug-03 23:18 051 0 gusting 3 20.6
2020-Aug-03 23:13 049 0 gusting 5 20.6
2020-Aug-03 23:08 119 0 gusting 6 21.1
2020-Aug-03 23:03 011 0 gusting 6 21.1
2020-Aug-03 22:58 055 2 gusting 8 21.1
2020-Aug-03 22:53 050 1 gusting 8 21.1
2020-Aug-03 22:48 021 2 gusting 9 21.1
2020-Aug-03 22:43 016 4 gusting 9 21.7
2020-Aug-03 22:38 010 4 gusting 8 21.1
2020-Aug-03 22:33 044 3 gusting 8 21.1
2020-Aug-03 22:28 048 3 gusting 6 21.7
2020-Aug-03 22:23 042 3 gusting 6 21.7
2020-Aug-03 22:18 036 3 gusting 6 21.7
2020-Aug-03 22:13 028 3 gusting 8 21.7
2020-Aug-03 22:08 006 3 gusting 12 21.7
2020-Aug-03 22:03 019 6 gusting 12 21.7
2020-Aug-03 21:58 356 6 gusting 10 21.7
2020-Aug-03 21:53 073 4 gusting 11 21.7
2020-Aug-03 21:48 011 5 gusting 10 21.7
2020-Aug-03 21:43 033 4 gusting 9 21.7
2020-Aug-03 21:38 356 4 gusting 9 21.7
2020-Aug-03 21:33 342 6 gusting 13 22.2
2020-Aug-03 21:28 024 6 gusting 13 22.2
2020-Aug-03 21:23 127 4 gusting 12 22.2
2020-Aug-03 21:18 027 6 gusting 12 22.2
2020-Aug-03 21:13 009 6 gusting 12 22.2
2020-Aug-03 21:08 078 5 gusting 12 22.2
2020-Aug-03 21:03 013 5 gusting 12 22.2